This demonstration page uses our WeatherBlox Daily Observations layout. Learn more.

Left ArrowRight Arrow

41.55636, -103.73856

Hourly Observations for May 1, 2020

Temp ( °F °C ) Dew Point ( °F °C ) Humidity (%) Winds ( mph kmh ) Pressure ( in mb ) Visibility ( mi km ) Precip ( " mm )
12:58 am 00:58 Mostly Clear 76 24.4 36 2 23 23 SE 10 17 29.64 1004 10 16 N/A
1:58 am 01:58 Mostly Cloudy 74 23.4 35 1.7 24 24 WSW 21 33 29.69 1006 10 16 N/A
2:58 am 02:58 Mostly Cloudy 69 20.8 36 2.2 29 29 WNW 12 19 29.68 1005 10 16 N/A
3:58 am 03:58 Mostly Cloudy 70 20.9 37 2.7 30 30 NW 23 37 29.74 1007 10 16 N/A
4:58 am 04:58 Mostly Cloudy 65 18.2 40 4.2 40 40 SW 5 7 29.74 1007 10 16 N/A
5:58 am 05:58 Mostly Cloudy 66 18.8 39 4 38 38 SW 8 13 29.71 1006 10 16 N/A
6:58 am 06:58 Mostly Cloudy 63 17.2 40 4.4 43 43 NW 5 7 29.72 1007 10 16 N/A
7:58 am 07:58 Mostly Clear 58 14.5 40 4.3 51 51 WNW 9 15 29.73 1007 10 16 N/A
8:58 am 08:58 Clear 55 12.7 40 4.2 57 57 W 10 17 29.75 1007 10 16 N/A
9:58 am 09:58 Clear 57 14.1 38 3.6 49 49 NW 14 22 29.74 1007 10 16 N/A
10:58 am 10:58 Mostly Cloudy 62 16.4 38 3.2 41 41 WNW 15 24 29.75 1008 10 16 N/A
11:58 am 11:58 Mostly Sunny 56 13.3 39 4 54 54 WNW 10 17 29.77 1008 10 16 N/A
12:58 pm 12:58 Sunny 56 13.6 40 4.5 54 54 W 8 13 29.83 1010 10 16 N/A
1:58 pm 13:58 Sunny 62 16.8 40 4.5 44 44 W 7 11 29.85 1011 10 16 N/A
2:58 pm 14:58 Sunny 67 19.6 37 2.7 33 33 NW 17 28 29.84 1010 10 16 N/A
3:58 pm 15:58 Sunny 70 21.3 38 3.6 31 31 NW 9 15 29.83 1010 10 16 N/A
4:58 pm 16:58 Sunny 74 23.1 38 3.5 28 28 NNE 13 20 29.83 1010 10 16 N/A
5:58 pm 17:58 Sunny 75 23.7 38 3.4 27 27 N 9 15 29.83 1010 10 16 N/A
6:58 pm 18:58 Sunny 75 23.8 38 3.4 27 27 NNW 7 11 29.84 1010 10 16 N/A
7:58 pm 19:58 Sunny 75 24.1 36 2.1 24 24 NNW 3 6 29.83 1010 10 16 N/A
8:58 pm 20:58 Sunny 77 24.9 38 3.2 24 24 NE 8 13 29.80 1009 10 16 N/A
9:58 pm 21:58 Mostly Cloudy with Light Rain 73 22.5 41 4.8 32 32 NW 8 13 29.83 1010 10 16 N/A
10:58 pm 22:58 Mostly Cloudy 67 19.2 49 9.2 53 53 N 8 13 29.85 1011 10 16 0.01 0.25
11:58 pm 23:58 Mostly Cloudy with Showers 60 15.6 51 10.6 72 72 N 18 30 29.92 1013 10 16 0.06 1.52

Powered by AerisWeather